Flag for U.S.A. Weather past 2 weeks in Oceanside, California, U.S.A.

58 °F


Feels Like: 56 °F
Forecast: 44 / 59 °F
Wind: 8 mph from West

Location: Oceanside Weather Reporting Station

Current Time: Nov 26, 2015 at 6:55:41 PM

Latest Report: Nov 26, 2015 at 5:52 PM

Visibility: 10 mi

Pressure: 29.98 "Hg

Humidity: 54%

Dew point: 41 °F

Location of OceansideLocation

Historic Weather in Oceanside — Graph


Oceanside temperature yesterday

Maximum temperature yesterday: 64 °F (at 10:52 AM)
Minimum temperature yesterday: 43 °F (at 11:52 PM)
Average temperature yesterday: 57 °F

Past Weeks' High & Low Weather Summary

High88 °F (Nov 21, 10:52 AM)86% (Nov 18, 8:52 PM)30.19 "Hg (Nov 18, 8:52 PM)
Low35 °F (Nov 13, 3:52 AM)10% (Nov 14, 10:52 AM)29.84 "Hg (Nov 25, 2:52 AM)
Average57 °F53%29.96 "Hg
* Reported Nov 11 4:52 PM — Nov 26 4:52 PM, Oceanside, Weather by CustomWeather, © 2015

Note: Actual official high and low records may vary slightly from our data, if they occured in-between our weather recording intervals... More about our weather records


Oceanside weather history for previous 24 hours

Time TempWeatherWind HumidityBarometerVisibility
4:52 PM
Thu, Nov 26
58 °FPassing clouds.6 mph51%29.97 "Hg10 mi
3:52 PM60 °FPartly sunny.9 mph52%29.97 "Hg10 mi
2:52 PM62 °FSunny.9 mph43%29.97 "Hg10 mi
1:52 PM63 °FPassing clouds.10 mph45%29.96 "Hg10 mi
12:52 PM63 °FPassing clouds.9 mph45%29.97 "Hg10 mi
11:52 AM64 °FPassing clouds.12 mph40%29.99 "Hg10 mi
10:52 AM62 °FPartly sunny.8 mph46%30.01 "Hg10 mi
9:52 AM59 °FOvercast.No wind58%30.02 "Hg10 mi
8:52 AM57 °FPartly sunny.5 mph62%30.01 "Hg10 mi
7:52 AM50 °FLight rain. More clouds than sun.No wind74%30.01 "Hg9 mi
6:52 AM47 °FMore clouds than sun.No wind80%29.99 "Hg10 mi
5:52 AM46 °FPassing clouds.No wind79%29.98 "Hg10 mi
4:52 AM46 °FOvercast.3 mph79%29.98 "Hg10 mi
3:52 AM43 °FPassing clouds.No wind82%29.97 "Hg10 mi
2:52 AM44 °FPassing clouds.5 mph79%29.96 "Hg10 mi
1:52 AM43 °FPassing clouds.No wind82%29.96 "Hg10 mi
12:52 AM42 °FPassing clouds.No wind82%29.96 "Hg10 mi
11:52 PM
Wed, Nov 25
43 °FPassing clouds.No wind79%29.97 "Hg10 mi
10:52 PM46 °FClear.No wind73%29.96 "Hg10 mi
9:52 PM49 °FPassing clouds.No wind71%29.96 "Hg10 mi
8:52 PM50 °FPassing clouds.No wind68%29.94 "Hg10 mi
7:52 PM53 °FMostly cloudy.3 mph64%29.94 "Hg10 mi
6:52 PM53 °FPassing clouds.No wind61%29.93 "Hg10 mi
Weather by CustomWeather, © 2015

See weather overviewHow to use our weather pages